• In Portugal
  • List of Countries
  • For 7 days
  • Water Temperature
  • Satellite Maps
  • Weather Map
  • Weather Widgets
  • user-avatar
    Login

    Hourly Weather Mochudi

    Today, 17 October, Tuesday

    Time Temperature Precipitation Wind Pressure Humidity
    00:00 +25°C° 0 mm 4 mps 679 mmHg 14%
    01:00 +23°C° 0 mm 4 mps 679 mmHg 15%
    02:00 +22°C° 0 mm 4 mps 679 mmHg 15%
    03:00 +21°C° 0 mm 4 mps 678 mmHg 15%
    04:00 +21°C° 0 mm 3 mps 678 mmHg 16%
    05:00 +20°C° 0 mm 2 mps 678 mmHg 16%
    06:00 +21°C° 0 mm 3 mps 679 mmHg 15%
    07:00 +22°C° 0 mm 3 mps 679 mmHg 13%
    08:00 +24°C° 0 mm 3 mps 680 mmHg 11%
    09:00 +27°C° 0 mm 3 mps 680 mmHg 10%
    10:00 +29°C° 0 mm 4 mps 680 mmHg 8%
    11:00 +32°C° 0 mm 4 mps 680 mmHg 7%
    12:00 +33°C° 0 mm 5 mps 680 mmHg 6%
    13:00 +34°C° 0 mm 5 mps 680 mmHg 5%
    14:00 +34°C° 0 mm 5 mps 680 mmHg 5%
    15:00 +34°C° 0 mm 5 mps 679 mmHg 4%
    16:00 +33°C° 0 mm 5 mps 679 mmHg 4%
    17:00 +33°C° 0 mm 5 mps 679 mmHg 4%
    18:00 +30°C° 0 mm 4 mps 679 mmHg 5%
    19:00 +28°C° 0 mm 3 mps 679 mmHg 6%
    20:00 +27°C° 0 mm 2 mps 680 mmHg 7%
    21:00 +26°C° 0 mm 2 mps 680 mmHg 7%
    22:00 +25°C° 0 mm 2 mps 680 mmHg 8%
    23:00 +24°C° 0 mm 2 mps 681 mmHg 9%

    Tomorrow, 18 October, Wednesday

    Time Temperature Precipitation Wind Pressure Humidity
    00:00 +23°C° 0 mm 2 mps 680 mmHg 10%
    01:00 +21°C° 0 mm 2 mps 680 mmHg 12%
    02:00 +20°C° 0 mm 2 mps 680 mmHg 13%
    03:00 +20°C° 0 mm 2 mps 680 mmHg 15%
    04:00 +19°C° 0 mm 2 mps 679 mmHg 17%
    05:00 +18°C° 0 mm 2 mps 679 mmHg 18%
    06:00 +20°C° 0 mm 2 mps 680 mmHg 17%
    07:00 +21°C° 0 mm 3 mps 680 mmHg 15%
    08:00 +24°C° 0 mm 3 mps 681 mmHg 14%
    09:00 +27°C° 0 mm 3 mps 681 mmHg 12%
    10:00 +29°C° 0 mm 4 mps 681 mmHg 10%
    11:00 +33°C° 0 mm 4 mps 681 mmHg 8%
    12:00 +34°C° 0 mm 4 mps 681 mmHg 9%
    13:00 +35°C° 0 mm 4 mps 680 mmHg 9%
    14:00 +36°C° 0 mm 3 mps 680 mmHg 10%
    15:00 +36°C° 0 mm 3 mps 679 mmHg 9%
    16:00 +37°C° 0 mm 3 mps 679 mmHg 8%
    17:00 +37°C° 0 mm 2 mps 679 mmHg 8%
    18:00 +35°C° 0 mm 3 mps 679 mmHg 12%
    19:00 +33°C° 0 mm 3 mps 679 mmHg 16%
    20:00 +30°C° 0 mm 4 mps 678 mmHg 20%
    21:00 +29°C° 0 mm 5 mps 679 mmHg 27%
    22:00 +28°C° 0 mm 5 mps 679 mmHg 34%
    23:00 +27°C° 0 mm 6 mps 679 mmHg 41%

    Day after tomorrow, 19 October, Thursday

    Time Temperature Precipitation Wind Pressure Humidity
    00:00 +26°C° 0 mm 6 mps 679 mmHg 44%
    01:00 +24°C° 0 mm 6 mps 678 mmHg 46%
    02:00 +23°C° 0 mm 6 mps 678 mmHg 48%
    03:00 +22°C° 0 mm 6 mps 678 mmHg 50%
    04:00 +22°C° 0 mm 5 mps 678 mmHg 52%
    05:00 +21°C° 0 mm 5 mps 677 mmHg 54%
    06:00 +22°C° 0 mm 5 mps 678 mmHg 52%
    07:00 +23°C° 0 mm 5 mps 678 mmHg 49%
    08:00 +24°C° 0 mm 6 mps 679 mmHg 47%
    09:00 +28°C° 0 mm 5 mps 679 mmHg 39%
    10:00 +30°C° 0 mm 5 mps 679 mmHg 32%
    11:00 +34°C° 0 mm 4 mps 680 mmHg 25%
    12:00 +36°C° 0 mm 5 mps 679 mmHg 20%
    13:00 +39°C° 0 mm 5 mps 679 mmHg 16%
    14:00 +41°C° 0 mm 5 mps 678 mmHg 11%
    15:00 +41°C° 0 mm 5 mps 678 mmHg 10%
    16:00 +41°C° 0 mm 5 mps 678 mmHg 9%
    17:00 +41°C° 0 mm 5 mps 677 mmHg 8%
    18:00 +39°C° 0 mm 5 mps 677 mmHg 8%
    19:00 +36°C° 0 mm 4 mps 678 mmHg 8%
    20:00 +34°C° 0 mm 3 mps 678 mmHg 9%
    21:00 +34°C° 0 mm 3 mps 678 mmHg 9%
    22:00 +33°C° 0 mm 3 mps 679 mmHg 9%
    23:00 +32°C° 0 mm 4 mps 679 mmHg 8%

    20 October, Friday

    Time Temperature Precipitation Wind Pressure Humidity
    00:00 +30°C° 0 mm 3 mps 679 mmHg 9%
    01:00 +29°C° 0 mm 3 mps 679 mmHg 9%
    02:00 +28°C° 0 mm 2 mps 678 mmHg 10%
    03:00 +28°C° 0 mm 2 mps 678 mmHg 10%
    04:00 +27°C° 0 mm 2 mps 678 mmHg 10%
    05:00 +27°C° 0 mm 2 mps 678 mmHg 10%
    06:00 +28°C° 0 mm 2 mps 679 mmHg 10%
    07:00 +29°C° 0 mm 3 mps 680 mmHg 10%
    08:00 +31°C° 0 mm 3 mps 680 mmHg 11%
    09:00 +34°C° 0 mm 4 mps 681 mmHg 13%
    10:00 +35°C° 0 mm 5 mps 681 mmHg 16%
    11:00 +38°C° 0 mm 6 mps 681 mmHg 18%
    12:00 +40°C° 0 mm 6 mps 680 mmHg 17%
    13:00 +41°C° 0 mm 6 mps 680 mmHg 16%
    14:00 +42°C° 0 mm 5 mps 679 mmHg 14%
    15:00 +41°C° 0 mm 5 mps 679 mmHg 16%
    16:00 +40°C° 0 mm 5 mps 679 mmHg 18%
    17:00 +37°C° 0 mm 4 mps 678 mmHg 20%
    18:00 +35°C° 0 mm 5 mps 679 mmHg 27%
    19:00 +33°C° 0 mm 5 mps 679 mmHg 33%
    20:00 +30°C° 0 mm 5 mps 679 mmHg 39%
    21:00 +30°C° 0 mm 4 mps 680 mmHg 42%
    22:00 +29°C° 0 mm 4 mps 680 mmHg 45%
    23:00 +29°C° 0 mm 4 mps 681 mmHg 47%

    21 October, Saturday

    Time Temperature Precipitation Wind Pressure Humidity
    00:00 +28°C° 0.1 mm 4 mps 681 mmHg 49%
    01:00 +27°C° 0.1 mm 3 mps 680 mmHg 51%
    02:00 +27°C° 0.1 mm 3 mps 680 mmHg 53%
    03:00 +26°C° 0.1 mm 4 mps 680 mmHg 55%
    04:00 +26°C° 0.1 mm 4 mps 680 mmHg 58%
    05:00 +25°C° 0.1 mm 4 mps 681 mmHg 60%
    06:00 +26°C° 0 mm 5 mps 681 mmHg 58%
    07:00 +27°C° 0 mm 5 mps 682 mmHg 55%
    08:00 +27°C° 0 mm 5 mps 683 mmHg 53%
    09:00 +29°C° 0 mm 5 mps 683 mmHg 47%
    10:00 +32°C° 0 mm 5 mps 683 mmHg 42%
    11:00 +34°C° 0 mm 5 mps 683 mmHg 36%
    12:00 +35°C° 0 mm 6 mps 682 mmHg 34%
    13:00 +36°C° 0 mm 6 mps 682 mmHg 32%
    14:00 +38°C° 0 mm 6 mps 681 mmHg 29%
    15:00 +36°C° 0 mm 7 mps 681 mmHg 31%
    16:00 +36°C° 0 mm 7 mps 681 mmHg 34%
    17:00 +35°C° 0 mm 8 mps 680 mmHg 36%
    18:00 +32°C° 3 mm 7 mps 681 mmHg 45%
    19:00 +29°C° 3 mm 7 mps 681 mmHg 54%
    20:00 +27°C° 3 mm 7 mps 682 mmHg 63%
    21:00 +27°C° 1.2 mm 7 mps 682 mmHg 63%
    22:00 +26°C° 1.2 mm 7 mps 683 mmHg 63%
    23:00 +26°C° 1.2 mm 7 mps 683 mmHg 63%

    22 October, Sunday

    Time Temperature Precipitation Wind Pressure Humidity
    00:00 +26°C° 0.1 mm 7 mps 683 mmHg 64%
    01:00 +24°C° 0.1 mm 7 mps 683 mmHg 66%
    02:00 +24°C° 0.1 mm 7 mps 683 mmHg 67%
    03:00 +24°C° 0 mm 6 mps 683 mmHg 68%
    04:00 +25°C° 0 mm 5 mps 683 mmHg 68%
    05:00 +25°C° 0 mm 4 mps 683 mmHg 69%
    06:00 +25°C° 0 mm 5 mps 683 mmHg 67%
    07:00 +26°C° 0 mm 6 mps 684 mmHg 64%
    08:00 +26°C° 0 mm 7 mps 685 mmHg 62%
    09:00 +28°C° 0 mm 7 mps 685 mmHg 57%
    10:00 +29°C° 0 mm 7 mps 685 mmHg 52%
    11:00 +32°C° 0 mm 7 mps 685 mmHg 47%
    12:00 +33°C° 0 mm 6 mps 684 mmHg 43%
    13:00 +34°C° 0 mm 6 mps 684 mmHg 40%
    14:00 +35°C° 0 mm 5 mps 683 mmHg 36%
    15:00 +35°C° 0 mm 5 mps 683 mmHg 36%
    16:00 +34°C° 0 mm 4 mps 682 mmHg 35%
    17:00 +34°C° 0 mm 4 mps 682 mmHg 34%
    18:00 +33°C° 0 mm 4 mps 682 mmHg 37%
    19:00 +32°C° 0 mm 4 mps 682 mmHg 39%
    20:00 +30°C° 0 mm 3 mps 682 mmHg 42%
    21:00 +30°C° 0 mm 3 mps 682 mmHg 43%
    22:00 +29°C° 0 mm 3 mps 682 mmHg 44%
    23:00 +29°C° 0 mm 3 mps 682 mmHg 45%
    Show more